Location: ???? ?????
(30.0052°N, 31.2891°E)
Time: 12:19:15
(UTC+00:00)

DELTA 2 DEB (DPAF) - Visible Passes

Search period start: 26 September 2022 00:00
Search period end: 06 October 2022 00:00
Orbit: 633 x 639 km, 98.4° (Epoch: 25 September)

Date Brightness Start Highest point End Pass type
(mag) Time Alt. Az. Time Alt. Az. Time Alt. Az.
26 Sep 6.8 01:23:00 10° ESE 01:26:05 19° ENE 01:29:10 10° NNE visible
26 Sep 4.9 02:58:25 10° SSW 03:02:12 28° W 03:05:59 10° NW visible
27 Sep 5.8 01:44:05 10° SE 01:48:02 33° ENE 01:51:59 10° N visible
27 Sep 5.6 03:21:49 10° SW 03:24:24 15° W 03:27:01 10° WNW visible
28 Sep 4.5 02:05:42 10° SSE 02:10:01 63° ENE 02:14:23 10° N visible
29 Sep 4.0 02:27:43 10° S 02:32:05 69° WSW 02:36:28 10° NNW visible
30 Sep 7.1 01:15:42 10° ESE 01:18:10 15° ENE 01:20:39 10° NE visible
30 Sep 4.6 02:50:09 10° SSW 02:54:11 36° W 02:58:14 10° NNW visible
01 Oct 6.2 01:36:25 10° SE 01:40:04 26° ENE 01:43:44 10° NNE visible
01 Oct 5.4 03:13:08 10° SW 03:16:20 20° W 03:19:33 10° NW visible
02 Oct 5.0 01:57:48 10° SSE 02:02:01 48° ENE 02:06:15 10° N visible
03 Oct 4.0 02:19:37 10° SSE 02:24:00 89° SW 02:28:25 10° NNW visible
04 Oct 7.3 01:08:40 10° E 01:10:10 12° ENE 01:11:41 10° NE visible
04 Oct 4.3 02:41:51 10° S 02:46:04 47° W 02:50:18 10° NNW visible
04 Oct 7.4 16:15:43 10° NW 16:17:11 11° WNW 16:18:38 10° W visible
05 Oct 6.6 01:28:44 10° ESE 01:32:00 21° ENE 01:35:16 10° NNE visible
05 Oct 5.1 03:04:32 10° SSW 03:08:10 25° W 03:11:48 10° NW visible
